Location: Unspecified
(41.1850°N, 73.2650°W)
Time: 12:02:49
(UTC+00:00)

Hubble Space Telescope - Visible Passes

Search period start: 17 February 2026 00:00
Search period end: 27 February 2026 00:00
Orbit: 478 x 479 km, 28.5° (Epoch: 16 February)

Date Brightness Start Highest point End Pass type
(mag) Time Alt. Az. Time Alt. Az. Time Alt. Az.
21 Feb 3.1 10:45:16 10° SSW 10:46:44 12° S 10:48:12 10° SSE visible
22 Feb 3.0 10:14:55 10° SSW 10:16:24 12° S 10:17:51 10° SSE visible
23 Feb 3.0 09:46:13 12° S 09:46:13 12° S 09:47:29 10° SSE visible
